owner,sensor,date,latitude,longitude,air_pressure(mBar),qcFlag 
ADCP,ioos:station:wmo:42361:1,2009-10-01T00:30:00Z,27.5500,-92.4900,1014.9,11111222 
ADCP,ioos:station:wmo:42361:1,2009-10-01T01:30:00Z,27.5500,-92.4900,1014.9,11111222 
ADCP,ioos:station:wmo:42361:1,2009-10-01T02:30:00Z,27.5500,-92.4900,1015.6,11111222 
ADCP,ioos:station:wmo:42361:1,2009-10-01T03:30:00Z,27.5500,-92.4900,1015.6,11111222 
ADCP,ioos:station:wmo:42361:1,2009-10-01T04:30:00Z,27.5500,-92.4900,1015.6,11111222 
ADCP,ioos:station:wmo:42361:1,2009-10-01T05:30:00Z,27.5500,-92.4900,1015.2,11111222 
ADCP,ioos:station:wmo:42361:1,2009-10-01T06:30:00Z,27.5500,-92.4900,1014.9,11111222 
ADCP,ioos:station:wmo:42361:1,2009-10-01T07:30:00Z,27.5500,-92.4900,1014.6,11111222 
ADCP,ioos:station:wmo:42361:1,2009-10-01T08:30:00Z,27.5500,-92.4900,1013.5,11111222 
ADCP,ioos:station:wmo:42361:1,2009-10-01T09:30:00Z,27.5500,-92.4900,1013.2,11111222 
ADCP,ioos:station:wmo:42361:1,2009-10-01T10:30:00Z,27.5500,-92.4900,1013.5,11111222 
ADCP,ioos:station:wmo:42361:1,2009-10-01T11:30:00Z,27.5500,-92.4900,1013.5,11111222 
ADCP,ioos:station:wmo:42361:1,2009-10-01T12:30:00Z,27.5500,-92.4900,1013.9,11111222 
ADCP,ioos:station:wmo:42361:1,2009-10-01T13:30:00Z,27.5500,-92.4900,1013.9,11111222 
ADCP,ioos:station:wmo:42361:1,2009-10-01T14:30:00Z,27.5500,-92.4900,1014.2,11111222 
ADCP,ioos:station:wmo:42361:1,2009-10-01T15:30:00Z,27.5500,-92.4900,1014.6,11111222 
ADCP,ioos:station:wmo:42361:1,2009-10-01T16:30:00Z,27.5500,-92.4900,1014.2,11111222 
ADCP,ioos:station:wmo:42361:1,2009-10-01T17:30:00Z,27.5500,-92.4900,1013.9,11111222 
ADCP,ioos:station:wmo:42361:1,2009-10-01T18:30:00Z,27.5500,-92.4900,1013.2,11111222 
ADCP,ioos:station:wmo:42361:1,2009-10-01T19:30:00Z,27.5500,-92.4900,1013.2,11111222 
ADCP,ioos:station:wmo:42361:1,2009-10-01T20:30:00Z,27.5500,-92.4900,1012.2,11111222 
ADCP,ioos:station:wmo:42361:1,2009-10-01T21:30:00Z,27.5500,-92.4900,1011.9,11111222 
ADCP,ioos:station:wmo:42361:1,2009-10-01T22:30:00Z,27.5500,-92.4900,1011.5,11111222 
ADCP,ioos:station:wmo:42361:1,2009-10-01T23:30:00Z,27.5500,-92.4900,1011.9,11111222 
ADCP,ioos:station:wmo:42361:1,2009-10-02T00:30:00Z,27.5500,-92.4900,1011.5,11111222 
ADCP,ioos:station:wmo:42361:1,2009-10-02T01:30:00Z,27.5500,-92.4900,1011.9,11111222 
ADCP,ioos:station:wmo:42361:1,2009-10-02T02:30:00Z,27.5500,-92.4900,1012.2,11111222 
ADCP,ioos:station:wmo:42361:1,2009-10-02T03:30:00Z,27.5500,-92.4900,1012.2,11111222 
ADCP,ioos:station:wmo:42361:1,2009-10-02T04:30:00Z,27.5500,-92.4900,1011.5,11111222 
ADCP,ioos:station:wmo:42361:1,2009-10-02T05:30:00Z,27.5500,-92.4900,1011.5,11111222 
ADCP,ioos:station:wmo:42361:1,2009-10-02T06:30:00Z,27.5500,-92.4900,1011.2,11111222 
ADCP,ioos:station:wmo:42361:1,2009-10-02T07:30:00Z,27.5500,-92.4900,1010.8,11111222 
ADCP,ioos:station:wmo:42361:1,2009-10-02T08:30:00Z,27.5500,-92.4900,1010.5,11111222 
ADCP,ioos:station:wmo:42361:1,2009-10-02T09:30:00Z,27.5500,-92.4900,1009.5,11111222 
ADCP,ioos:station:wmo:42361:1,2009-10-02T10:30:00Z,27.5500,-92.4900,1009.1,11111222 
ADCP,ioos:station:wmo:42361:1,2009-10-02T11:30:00Z,27.5500,-92.4900,1009.1,11111222 
ADCP,ioos:station:wmo:42361:1,2009-10-02T12:30:00Z,27.5500,-92.4900,1009.5,11111222 
ADCP,ioos:station:wmo:42361:1,2009-10-02T13:30:00Z,27.5500,-92.4900,1010.5,11111222 
ADCP,ioos:station:wmo:42361:1,2009-10-02T14:30:00Z,27.5500,-92.4900,1012.9,11111222 
ADCP,ioos:station:wmo:42361:1,2009-10-02T15:30:00Z,27.5500,-92.4900,1012.2,11111222 
ADCP,ioos:station:wmo:42361:1,2009-10-02T16:30:00Z,27.5500,-92.4900,1012.2,11111222 
ADCP,ioos:station:wmo:42361:1,2009-10-02T17:30:00Z,27.5500,-92.4900,1012.2,11111222 
ADCP,ioos:station:wmo:42361:1,2009-10-02T18:30:00Z,27.5500,-92.4900,1011.5,11111222 
ADCP,ioos:station:wmo:42361:1,2009-10-02T19:30:00Z,27.5500,-92.4900,1011.2,11111222 
ADCP,ioos:station:wmo:42361:1,2009-10-02T20:30:00Z,27.5500,-92.4900,1010.8,11111222 
ADCP,ioos:station:wmo:42361:1,2009-10-02T21:30:00Z,27.5500,-92.4900,1010.5,11111222 
ADCP,ioos:station:wmo:42361:1,2009-10-02T22:30:00Z,27.5500,-92.4900,1009.8,11111222 
ADCP,ioos:station:wmo:42361:1,2009-10-02T23:30:00Z,27.5500,-92.4900,1009.5,11111222 
ADCP,ioos:station:wmo:42361:1,2009-10-03T00:30:00Z,27.5500,-92.4900,1009.8,11111222 
ADCP,ioos:station:wmo:42361:1,2009-10-03T01:30:00Z,27.5500,-92.4900,1010.2,11111222 
ADCP,ioos:station:wmo:42361:1,2009-10-03T02:30:00Z,27.5500,-92.4900,1010.5,11111222 
ADCP,ioos:station:wmo:42361:1,2009-10-03T03:30:00Z,27.5500,-92.4900,1010.8,11111222 
ADCP,ioos:station:wmo:42361:1,2009-10-03T04:30:00Z,27.5500,-92.4900,1010.8,11111222 
ADCP,ioos:station:wmo:42361:1,2009-10-03T05:30:00Z,27.5500,-92.4900,1010.8,11111222 
ADCP,ioos:station:wmo:42361:1,2009-10-03T06:30:00Z,27.5500,-92.4900,1011.2,11111222 
ADCP,ioos:station:wmo:42361:1,2009-10-03T07:30:00Z,27.5500,-92.4900,1010.8,11111222 
ADCP,ioos:station:wmo:42361:1,2009-10-03T08:30:00Z,27.5500,-92.4900,1010.5,11111222 
ADCP,ioos:station:wmo:42361:1,2009-10-03T09:30:00Z,27.5500,-92.4900,1010.2,11111222 
ADCP,ioos:station:wmo:42361:1,2009-10-03T10:30:00Z,27.5500,-92.4900,1010.2,11111222 
ADCP,ioos:station:wmo:42361:1,2009-10-03T11:30:00Z,27.5500,-92.4900,1010.5,11111222 
ADCP,ioos:station:wmo:42361:1,2009-10-03T12:30:00Z,27.5500,-92.4900,1011.2,11111222 
ADCP,ioos:station:wmo:42361:1,2009-10-03T13:30:00Z,27.5500,-92.4900,1011.2,11111222 
ADCP,ioos:station:wmo:42361:1,2009-10-03T14:30:00Z,27.5500,-92.4900,1011.9,11111222 
ADCP,ioos:station:wmo:42361:1,2009-10-03T15:30:00Z,27.5500,-92.4900,1012.5,11111222 
ADCP,ioos:station:wmo:42361:1,2009-10-03T16:30:00Z,27.5500,-92.4900,1012.2,11111222 
ADCP,ioos:station:wmo:42361:1,2009-10-03T17:30:00Z,27.5500,-92.4900,1011.9,11111222 
ADCP,ioos:station:wmo:42361:1,2009-10-03T18:30:00Z,27.5500,-92.4900,1011.9,11111222 
ADCP,ioos:station:wmo:42361:1,2009-10-03T19:30:00Z,27.5500,-92.4900,1010.8,11111222 
ADCP,ioos:station:wmo:42361:1,2009-10-03T20:30:00Z,27.5500,-92.4900,1010.2,11111222 
ADCP,ioos:station:wmo:42361:1,2009-10-03T21:30:00Z,27.5500,-92.4900,1009.8,11111222 
ADCP,ioos:station:wmo:42361:1,2009-10-03T22:30:00Z,27.5500,-92.4900,1009.5,11111222 
ADCP,ioos:station:wmo:42361:1,2009-10-03T23:30:00Z,27.5500,-92.4900,1009.8,11111222 
ADCP,ioos:station:wmo:42361:1,2009-10-04T00:30:00Z,27.5500,-92.4900,1010.2,11111222 
ADCP,ioos:station:wmo:42361:1,2009-10-04T01:30:00Z,27.5500,-92.4900,1010.5,11111222 
ADCP,ioos:station:wmo:42361:1,2009-10-04T02:30:00Z,27.5500,-92.4900,1010.8,11111222 
ADCP,ioos:station:wmo:42361:1,2009-10-04T03:30:00Z,27.5500,-92.4900,1011.2,11111222 
ADCP,ioos:station:wmo:42361:1,2009-10-04T04:30:00Z,27.5500,-92.4900,1010.8,11111222 
ADCP,ioos:station:wmo:42361:1,2009-10-04T05:30:00Z,27.5500,-92.4900,1011.2,11111222 
ADCP,ioos:station:wmo:42361:1,2009-10-04T06:30:00Z,27.5500,-92.4900,1011.2,11111222 
ADCP,ioos:station:wmo:42361:1,2009-10-04T07:30:00Z,27.5500,-92.4900,1010.5,11111222 
ADCP,ioos:station:wmo:42361:1,2009-10-04T08:30:00Z,27.5500,-92.4900,1010.2,11111222 
ADCP,ioos:station:wmo:42361:1,2009-10-04T09:30:00Z,27.5500,-92.4900,1009.5,11111222 
ADCP,ioos:station:wmo:42361:1,2009-10-04T10:30:00Z,27.5500,-92.4900,1009.5,11111222 
ADCP,ioos:station:wmo:42361:1,2009-10-04T11:30:00Z,27.5500,-92.4900,1009.8,11111222 
ADCP,ioos:station:wmo:42361:1,2009-10-04T12:30:00Z,27.5500,-92.4900,1009.8,11111222 
ADCP,ioos:station:wmo:42361:1,2009-10-04T13:30:00Z,27.5500,-92.4900,1009.8,11111222 
ADCP,ioos:station:wmo:42361:1,2009-10-04T14:30:00Z,27.5500,-92.4900,1010.5,11111222 
ADCP,ioos:station:wmo:42361:1,2009-10-04T15:30:00Z,27.5500,-92.4900,1010.5,11111222 
ADCP,ioos:station:wmo:42361:1,2009-10-04T16:30:00Z,27.5500,-92.4900,1010.5,11111222 
ADCP,ioos:station:wmo:42361:1,2009-10-04T17:30:00Z,27.5500,-92.4900,1010.8,11111222 
ADCP,ioos:station:wmo:42361:1,2009-10-04T18:30:00Z,27.5500,-92.4900,1010.2,11111222 
ADCP,ioos:station:wmo:42361:1,2009-10-04T19:30:00Z,27.5500,-92.4900,1009.5,11111222 
ADCP,ioos:station:wmo:42361:1,2009-10-04T20:30:00Z,27.5500,-92.4900,1009.1,11111222 
ADCP,ioos:station:wmo:42361:1,2009-10-04T21:30:00Z,27.5500,-92.4900,1008.8,11111222 
ADCP,ioos:station:wmo:42361:1,2009-10-04T22:30:00Z,27.5500,-92.4900,1008.5,11111222 
ADCP,ioos:station:wmo:42361:1,2009-10-04T23:30:00Z,27.5500,-92.4900,1008.5,11111222 
ADCP,ioos:station:wmo:42361:1,2009-10-05T00:30:00Z,27.5500,-92.4900,1009.1,11111222 
ADCP,ioos:station:wmo:42361:1,2009-10-05T01:30:00Z,27.5500,-92.4900,1009.5,11111222 
ADCP,ioos:station:wmo:42361:1,2009-10-05T02:30:00Z,27.5500,-92.4900,1010.2,11111222 
ADCP,ioos:station:wmo:42361:1,2009-10-05T03:30:00Z,27.5500,-92.4900,1010.5,11111222 
ADCP,ioos:station:wmo:42361:1,2009-10-05T04:30:00Z,27.5500,-92.4900,1010.5,11111222 
ADCP,ioos:station:wmo:42361:1,2009-10-05T05:30:00Z,27.5500,-92.4900,1010.5,11111222 
ADCP,ioos:station:wmo:42361:1,2009-10-05T06:30:00Z,27.5500,-92.4900,1010.8,11111222 
ADCP,ioos:station:wmo:42361:1,2009-10-05T07:30:00Z,27.5500,-92.4900,1010.8,11111222 
ADCP,ioos:station:wmo:42361:1,2009-10-05T08:30:00Z,27.5500,-92.4900,1010.8,11111222 
ADCP,ioos:station:wmo:42361:1,2009-10-05T09:30:00Z,27.5500,-92.4900,1010.5,11111222 
ADCP,ioos:station:wmo:42361:1,2009-10-05T10:30:00Z,27.5500,-92.4900,1010.5,11111222 
ADCP,ioos:station:wmo:42361:1,2009-10-05T11:30:00Z,27.5500,-92.4900,1010.8,11111222 
ADCP,ioos:station:wmo:42361:1,2009-10-05T12:30:00Z,27.5500,-92.4900,1011.5,11111222 
ADCP,ioos:station:wmo:42361:1,2009-10-05T13:30:00Z,27.5500,-92.4900,1011.9,11111222 
ADCP,ioos:station:wmo:42361:1,2009-10-05T14:30:00Z,27.5500,-92.4900,1012.2,11111222 
ADCP,ioos:station:wmo:42361:1,2009-10-05T15:30:00Z,27.5500,-92.4900,1013.2,11111222 
ADCP,ioos:station:wmo:42361:1,2009-10-05T16:30:00Z,27.5500,-92.4900,1013.2,11111222 
ADCP,ioos:station:wmo:42361:1,2009-10-05T17:30:00Z,27.5500,-92.4900,1012.9,11111222 
ADCP,ioos:station:wmo:42361:1,2009-10-05T18:30:00Z,27.5500,-92.4900,1012.5,11111222 
ADCP,ioos:station:wmo:42361:1,2009-10-05T19:30:00Z,27.5500,-92.4900,1011.9,11111222 
ADCP,ioos:station:wmo:42361:1,2009-10-05T20:30:00Z,27.5500,-92.4900,1011.5,11111222 
ADCP,ioos:station:wmo:42361:1,2009-10-05T21:30:00Z,27.5500,-92.4900,1011.2,11111222 
ADCP,ioos:station:wmo:42361:1,2009-10-05T22:30:00Z,27.5500,-92.4900,1011.2,11111222 
ADCP,ioos:station:wmo:42361:1,2009-10-05T23:30:00Z,27.5500,-92.4900,1011.2,11111222 
ADCP,ioos:station:wmo:42361:1,2009-10-06T00:30:00Z,27.5500,-92.4900,1011.2,11111222 
ADCP,ioos:station:wmo:42361:1,2009-10-06T01:30:00Z,27.5500,-92.4900,1011.2,11111222 
ADCP,ioos:station:wmo:42361:1,2009-10-06T02:30:00Z,27.5500,-92.4900,1011.9,11111222 
ADCP,ioos:station:wmo:42361:1,2009-10-06T03:30:00Z,27.5500,-92.4900,1012.2,11111222 
ADCP,ioos:station:wmo:42361:1,2009-10-06T04:30:00Z,27.5500,-92.4900,1012.5,11111222 
ADCP,ioos:station:wmo:42361:1,2009-10-06T05:30:00Z,27.5500,-92.4900,1012.2,11111222 
ADCP,ioos:station:wmo:42361:1,2009-10-06T06:30:00Z,27.5500,-92.4900,1012.2,11111222 
ADCP,ioos:station:wmo:42361:1,2009-10-06T07:30:00Z,27.5500,-92.4900,1012.2,11111222 
ADCP,ioos:station:wmo:42361:1,2009-10-06T08:30:00Z,27.5500,-92.4900,1011.9,11111222 
ADCP,ioos:station:wmo:42361:1,2009-10-06T09:30:00Z,27.5500,-92.4900,1011.5,11111222 
ADCP,ioos:station:wmo:42361:1,2009-10-06T10:30:00Z,27.5500,-92.4900,1011.2,11111222 
ADCP,ioos:station:wmo:42361:1,2009-10-06T11:30:00Z,27.5500,-92.4900,1011.9,11111222 
ADCP,ioos:station:wmo:42361:1,2009-10-06T12:30:00Z,27.5500,-92.4900,1012.2,11111222 
ADCP,ioos:station:wmo:42361:1,2009-10-06T13:30:00Z,27.5500,-92.4900,1012.5,11111222 
ADCP,ioos:station:wmo:42361:1,2009-10-06T14:30:00Z,27.5500,-92.4900,1012.9,11111222 
ADCP,ioos:station:wmo:42361:1,2009-10-06T15:30:00Z,27.5500,-92.4900,1013.2,11111222 
ADCP,ioos:station:wmo:42361:1,2009-10-06T16:30:00Z,27.5500,-92.4900,1012.9,11111222 
ADCP,ioos:station:wmo:42361:1,2009-10-06T17:30:00Z,27.5500,-92.4900,1012.9,11111222 
ADCP,ioos:station:wmo:42361:1,2009-10-06T18:30:00Z,27.5500,-92.4900,1012.5,11111222 
ADCP,ioos:station:wmo:42361:1,2009-10-06T19:30:00Z,27.5500,-92.4900,1011.5,11111222 
ADCP,ioos:station:wmo:42361:1,2009-10-06T20:30:00Z,27.5500,-92.4900,1011.2,11111222 
ADCP,ioos:station:wmo:42361:1,2009-10-06T21:30:00Z,27.5500,-92.4900,1011.2,11111222 
ADCP,ioos:station:wmo:42361:1,2009-10-06T22:30:00Z,27.5500,-92.4900,1011.9,11111222 
ADCP,ioos:station:wmo:42361:1,2009-10-06T23:30:00Z,27.5500,-92.4900,1012.2,11111222 
ADCP,ioos:station:wmo:42361:1,2009-10-07T00:30:00Z,27.5500,-92.4900,1012.2,11111222 
ADCP,ioos:station:wmo:42361:1,2009-10-07T01:30:00Z,27.5500,-92.4900,1012.9,11111222 
ADCP,ioos:station:wmo:42361:1,2009-10-07T02:30:00Z,27.5500,-92.4900,1013.5,11111222 
ADCP,ioos:station:wmo:42361:1,2009-10-07T03:30:00Z,27.5500,-92.4900,1013.9,11111222 
ADCP,ioos:station:wmo:42361:1,2009-10-07T04:30:00Z,27.5500,-92.4900,1013.9,11111222 
ADCP,ioos:station:wmo:42361:1,2009-10-07T05:30:00Z,27.5500,-92.4900,1013.9,11111222 
ADCP,ioos:station:wmo:42361:1,2009-10-07T06:30:00Z,27.5500,-92.4900,1013.5,11111222 
ADCP,ioos:station:wmo:42361:1,2009-10-07T07:30:00Z,27.5500,-92.4900,1014.2,11111222 
ADCP,ioos:station:wmo:42361:1,2009-10-07T08:30:00Z,27.5500,-92.4900,1014.2,11111222 
ADCP,ioos:station:wmo:42361:1,2009-10-07T09:30:00Z,27.5500,-92.4900,1014.2,11111222 
ADCP,ioos:station:wmo:42361:1,2009-10-07T10:30:00Z,27.5500,-92.4900,1014.2,11111222 
ADCP,ioos:station:wmo:42361:1,2009-10-07T11:30:00Z,27.5500,-92.4900,1014.9,11111222 
ADCP,ioos:station:wmo:42361:1,2009-10-07T12:30:00Z,27.5500,-92.4900,1015.2,11111222 
ADCP,ioos:station:wmo:42361:1,2009-10-07T13:30:00Z,27.5500,-92.4900,1015.6,11111222 
ADCP,ioos:station:wmo:42361:1,2009-10-07T14:30:00Z,27.5500,-92.4900,1016.6,11111222 
ADCP,ioos:station:wmo:42361:1,2009-10-07T15:30:00Z,27.5500,-92.4900,1016.9,11111222 
ADCP,ioos:station:wmo:42361:1,2009-10-07T16:30:00Z,27.5500,-92.4900,1017.6,11111222 
ADCP,ioos:station:wmo:42361:1,2009-10-07T17:30:00Z,27.5500,-92.4900,1017.3,11111222 
ADCP,ioos:station:wmo:42361:1,2009-10-07T18:30:00Z,27.5500,-92.4900,1016.6,11111222 
ADCP,ioos:station:wmo:42361:1,2009-10-07T19:30:00Z,27.5500,-92.4900,1015.9,11111222 
ADCP,ioos:station:wmo:42361:1,2009-10-07T20:30:00Z,27.5500,-92.4900,1015.6,11111222 
ADCP,ioos:station:wmo:42361:1,2009-10-07T21:30:00Z,27.5500,-92.4900,1015.2,11111222 
ADCP,ioos:station:wmo:42361:1,2009-10-07T22:30:00Z,27.5500,-92.4900,1014.9,11111222 
ADCP,ioos:station:wmo:42361:1,2009-10-07T23:30:00Z,27.5500,-92.4900,1014.9,11111222 
ADCP,ioos:station:wmo:42361:1,2009-10-08T00:30:00Z,27.5500,-92.4900,1015.2,11111222 
ADCP,ioos:station:wmo:42361:1,2009-10-08T01:30:00Z,27.5500,-92.4900,1015.6,11111222 
ADCP,ioos:station:wmo:42361:1,2009-10-08T02:30:00Z,27.5500,-92.4900,1016.3,11111222 
ADCP,ioos:station:wmo:42361:1,2009-10-08T03:30:00Z,27.5500,-92.4900,1016.6,11111222 
ADCP,ioos:station:wmo:42361:1,2009-10-08T04:30:00Z,27.5500,-92.4900,1016.6,11111222 
ADCP,ioos:station:wmo:42361:1,2009-10-08T05:30:00Z,27.5500,-92.4900,1016.6,11111222 
ADCP,ioos:station:wmo:42361:1,2009-10-08T06:30:00Z,27.5500,-92.4900,1016.3,11111222 
ADCP,ioos:station:wmo:42361:1,2009-10-08T07:30:00Z,27.5500,-92.4900,1016.6,11111222 
ADCP,ioos:station:wmo:42361:1,2009-10-08T08:30:00Z,27.5500,-92.4900,1016.3,11111222 
ADCP,ioos:station:wmo:42361:1,2009-10-08T09:30:00Z,27.5500,-92.4900,1015.6,11111222 
ADCP,ioos:station:wmo:42361:1,2009-10-08T10:30:00Z,27.5500,-92.4900,1015.9,11111222 
ADCP,ioos:station:wmo:42361:1,2009-10-08T11:30:00Z,27.5500,-92.4900,1016.3,11111222 
ADCP,ioos:station:wmo:42361:1,2009-10-08T12:30:00Z,27.5500,-92.4900,1015.9,11111222 
ADCP,ioos:station:wmo:42361:1,2009-10-08T13:30:00Z,27.5500,-92.4900,1016.3,11111222 
ADCP,ioos:station:wmo:42361:1,2009-10-08T14:30:00Z,27.5500,-92.4900,1016.6,11111222 
ADCP,ioos:station:wmo:42361:1,2009-10-08T15:30:00Z,27.5500,-92.4900,1016.9,11111222 
ADCP,ioos:station:wmo:42361:1,2009-10-08T16:30:00Z,27.5500,-92.4900,1016.6,11111222 
ADCP,ioos:station:wmo:42361:1,2009-10-08T17:30:00Z,27.5500,-92.4900,1015.9,11111222 
ADCP,ioos:station:wmo:42361:1,2009-10-08T18:30:00Z,27.5500,-92.4900,1015.2,11111222 
ADCP,ioos:station:wmo:42361:1,2009-10-08T19:30:00Z,27.5500,-92.4900,1014.2,11111222 
ADCP,ioos:station:wmo:42361:1,2009-10-08T20:30:00Z,27.5500,-92.4900,1013.9,11111222 
ADCP,ioos:station:wmo:42361:1,2009-10-08T21:30:00Z,27.5500,-92.4900,1013.5,11111222 
ADCP,ioos:station:wmo:42361:1,2009-10-08T22:30:00Z,27.5500,-92.4900,1013.5,11111222 
ADCP,ioos:station:wmo:42361:1,2009-10-08T23:30:00Z,27.5500,-92.4900,1013.2,11111222 
ADCP,ioos:station:wmo:42361:1,2009-10-09T00:30:00Z,27.5500,-92.4900,1013.5,11111222 
ADCP,ioos:station:wmo:42361:1,2009-10-09T01:30:00Z,27.5500,-92.4900,1013.9,11111222 
ADCP,ioos:station:wmo:42361:1,2009-10-09T02:30:00Z,27.5500,-92.4900,1014.2,11111222 
ADCP,ioos:station:wmo:42361:1,2009-10-09T03:30:00Z,27.5500,-92.4900,1014.2,11111222 
ADCP,ioos:station:wmo:42361:1,2009-10-09T04:30:00Z,27.5500,-92.4900,1013.9,11111222 
ADCP,ioos:station:wmo:42361:1,2009-10-09T05:30:00Z,27.5500,-92.4900,1013.9,11111222 
ADCP,ioos:station:wmo:42361:1,2009-10-09T06:30:00Z,27.5500,-92.4900,1013.5,11111222 
ADCP,ioos:station:wmo:42361:1,2009-10-09T07:30:00Z,27.5500,-92.4900,1013.2,11111222 
ADCP,ioos:station:wmo:42361:1,2009-10-09T08:30:00Z,27.5500,-92.4900,1012.5,11111222 
ADCP,ioos:station:wmo:42361:1,2009-10-09T09:30:00Z,27.5500,-92.4900,1012.2,11111222 
ADCP,ioos:station:wmo:42361:1,2009-10-09T10:30:00Z,27.5500,-92.4900,1011.9,11111222 
ADCP,ioos:station:wmo:42361:1,2009-10-09T11:30:00Z,27.5500,-92.4900,1012.5,11111222 
ADCP,ioos:station:wmo:42361:1,2009-10-09T12:30:00Z,27.5500,-92.4900,1012.5,11111222 
ADCP,ioos:station:wmo:42361:1,2009-10-09T13:30:00Z,27.5500,-92.4900,1012.9,11111222 
ADCP,ioos:station:wmo:42361:1,2009-10-09T14:30:00Z,27.5500,-92.4900,1013.2,11111222 
ADCP,ioos:station:wmo:42361:1,2009-10-09T15:30:00Z,27.5500,-92.4900,1013.2,11111222 
ADCP,ioos:station:wmo:42361:1,2009-10-09T16:30:00Z,27.5500,-92.4900,1012.9,11111222 
ADCP,ioos:station:wmo:42361:1,2009-10-09T17:30:00Z,27.5500,-92.4900,1012.9,11111222 
ADCP,ioos:station:wmo:42361:1,2009-10-09T18:30:00Z,27.5500,-92.4900,1011.9,11111222 
ADCP,ioos:station:wmo:42361:1,2009-10-09T19:30:00Z,27.5500,-92.4900,1011.2,11111222 
ADCP,ioos:station:wmo:42361:1,2009-10-09T20:30:00Z,27.5500,-92.4900,1010.5,11111222 
ADCP,ioos:station:wmo:42361:1,2009-10-09T21:30:00Z,27.5500,-92.4900,1010.8,11111222 
ADCP,ioos:station:wmo:42361:1,2009-10-09T22:30:00Z,27.5500,-92.4900,1010.8,11111222 
ADCP,ioos:station:wmo:42361:1,2009-10-09T23:30:00Z,27.5500,-92.4900,1011.5,11111222 
ADCP,ioos:station:wmo:42361:1,2009-10-10T00:30:00Z,27.5500,-92.4900,1011.9,11111222 
ADCP,ioos:station:wmo:42361:1,2009-10-10T01:30:00Z,27.5500,-92.4900,1012.5,11111222 
ADCP,ioos:station:wmo:42361:1,2009-10-10T02:30:00Z,27.5500,-92.4900,1013.5,11111222 
ADCP,ioos:station:wmo:42361:1,2009-10-10T03:30:00Z,27.5500,-92.4900,1013.9,11111222 
ADCP,ioos:station:wmo:42361:1,2009-10-10T04:30:00Z,27.5500,-92.4900,1013.5,11111222 
ADCP,ioos:station:wmo:42361:1,2009-10-10T05:30:00Z,27.5500,-92.4900,1013.5,11111222 
ADCP,ioos:station:wmo:42361:1,2009-10-10T06:30:00Z,27.5500,-92.4900,1013.5,11111222 
ADCP,ioos:station:wmo:42361:1,2009-10-10T07:30:00Z,27.5500,-92.4900,1013.5,11111222 
ADCP,ioos:station:wmo:42361:1,2009-10-10T08:30:00Z,27.5500,-92.4900,1012.9,11111222 
ADCP,ioos:station:wmo:42361:1,2009-10-10T09:30:00Z,27.5500,-92.4900,1012.9,11111222 
ADCP,ioos:station:wmo:42361:1,2009-10-10T10:30:00Z,27.5500,-92.4900,1012.9,11111222 
ADCP,ioos:station:wmo:42361:1,2009-10-10T11:30:00Z,27.5500,-92.4900,1013.2,11111222 
ADCP,ioos:station:wmo:42361:1,2009-10-10T12:30:00Z,27.5500,-92.4900,1014.2,11111222 
ADCP,ioos:station:wmo:42361:1,2009-10-10T13:30:00Z,27.5500,-92.4900,1014.6,11111222 
ADCP,ioos:station:wmo:42361:1,2009-10-10T14:30:00Z,27.5500,-92.4900,1014.9,11111222 
ADCP,ioos:station:wmo:42361:1,2009-10-10T15:30:00Z,27.5500,-92.4900,1015.6,11111222 
ADCP,ioos:station:wmo:42361:1,2009-10-10T16:30:00Z,27.5500,-92.4900,1015.6,11111222 
ADCP,ioos:station:wmo:42361:1,2009-10-10T17:30:00Z,27.5500,-92.4900,1015.6,11111222 
ADCP,ioos:station:wmo:42361:1,2009-10-10T18:30:00Z,27.5500,-92.4900,1014.9,11111222 
ADCP,ioos:station:wmo:42361:1,2009-10-10T19:30:00Z,27.5500,-92.4900,1014.2,11111222 
ADCP,ioos:station:wmo:42361:1,2009-10-10T20:30:00Z,27.5500,-92.4900,1013.5,11111222 
ADCP,ioos:station:wmo:42361:1,2009-10-10T21:30:00Z,27.5500,-92.4900,1013.5,11111222 
ADCP,ioos:station:wmo:42361:1,2009-10-10T22:30:00Z,27.5500,-92.4900,1013.5,11111222 
ADCP,ioos:station:wmo:42361:1,2009-10-10T23:30:00Z,27.5500,-92.4900,1013.5,11111222 
ADCP,ioos:station:wmo:42361:1,2009-10-11T00:30:00Z,27.5500,-92.4900,1014.2,11111222 
ADCP,ioos:station:wmo:42361:1,2009-10-11T01:30:00Z,27.5500,-92.4900,1014.9,11111222 
ADCP,ioos:station:wmo:42361:1,2009-10-11T02:30:00Z,27.5500,-92.4900,1015.2,11111222 
ADCP,ioos:station:wmo:42361:1,2009-10-11T03:30:00Z,27.5500,-92.4900,1015.6,11111222 
ADCP,ioos:station:wmo:42361:1,2009-10-11T04:30:00Z,27.5500,-92.4900,1015.6,11111222 
ADCP,ioos:station:wmo:42361:1,2009-10-11T05:30:00Z,27.5500,-92.4900,1015.2,11111222 
ADCP,ioos:station:wmo:42361:1,2009-10-11T06:30:00Z,27.5500,-92.4900,1015.2,11111222 
ADCP,ioos:station:wmo:42361:1,2009-10-11T07:30:00Z,27.5500,-92.4900,1014.2,11111222 
ADCP,ioos:station:wmo:42361:1,2009-10-11T08:30:00Z,27.5500,-92.4900,1013.9,11111222 
ADCP,ioos:station:wmo:42361:1,2009-10-11T09:30:00Z,27.5500,-92.4900,1014.6,11111222 
ADCP,ioos:station:wmo:42361:1,2009-10-11T10:30:00Z,27.5500,-92.4900,1014.6,11111222 
ADCP,ioos:station:wmo:42361:1,2009-10-11T11:30:00Z,27.5500,-92.4900,1014.9,11111222 
ADCP,ioos:station:wmo:42361:1,2009-10-11T12:30:00Z,27.5500,-92.4900,1015.9,11111222 
ADCP,ioos:station:wmo:42361:1,2009-10-11T13:30:00Z,27.5500,-92.4900,1016.9,11111222 
ADCP,ioos:station:wmo:42361:1,2009-10-11T14:30:00Z,27.5500,-92.4900,1016.6,11111222 
ADCP,ioos:station:wmo:42361:1,2009-10-11T15:30:00Z,27.5500,-92.4900,1016.6,11111222 
ADCP,ioos:station:wmo:42361:1,2009-10-11T16:30:00Z,27.5500,-92.4900,1016.9,11111222 
ADCP,ioos:station:wmo:42361:1,2009-10-11T17:30:00Z,27.5500,-92.4900,1017.3,11111222 
ADCP,ioos:station:wmo:42361:1,2009-10-11T18:30:00Z,27.5500,-92.4900,1016.6,11111222 
ADCP,ioos:station:wmo:42361:1,2009-10-11T19:30:00Z,27.5500,-92.4900,1015.9,11111222 
ADCP,ioos:station:wmo:42361:1,2009-10-11T20:30:00Z,27.5500,-92.4900,1014.6,11111222 
ADCP,ioos:station:wmo:42361:1,2009-10-11T21:30:00Z,27.5500,-92.4900,1014.6,11111222 
ADCP,ioos:station:wmo:42361:1,2009-10-11T22:30:00Z,27.5500,-92.4900,1013.9,11111222 
ADCP,ioos:station:wmo:42361:1,2009-10-11T23:30:00Z,27.5500,-92.4900,1014.6,11111222 
ADCP,ioos:station:wmo:42361:1,2009-10-12T00:30:00Z,27.5500,-92.4900,1014.9,11111222 
ADCP,ioos:station:wmo:42361:1,2009-10-12T01:30:00Z,27.5500,-92.4900,1015.2,11111222 
ADCP,ioos:station:wmo:42361:1,2009-10-12T02:30:00Z,27.5500,-92.4900,1015.6,11111222 
ADCP,ioos:station:wmo:42361:1,2009-10-12T03:30:00Z,27.5500,-92.4900,1015.6,11111222 
ADCP,ioos:station:wmo:42361:1,2009-10-12T04:30:00Z,27.5500,-92.4900,1015.6,11111222 
ADCP,ioos:station:wmo:42361:1,2009-10-12T05:30:00Z,27.5500,-92.4900,1015.6,11111222 
ADCP,ioos:station:wmo:42361:1,2009-10-12T06:30:00Z,27.5500,-92.4900,1015.2,11111222 
ADCP,ioos:station:wmo:42361:1,2009-10-12T07:30:00Z,27.5500,-92.4900,1015.2,11111222 
ADCP,ioos:station:wmo:42361:1,2009-10-12T08:30:00Z,27.5500,-92.4900,1014.9,11111222 
ADCP,ioos:station:wmo:42361:1,2009-10-12T09:30:00Z,27.5500,-92.4900,1014.9,11111222 
ADCP,ioos:station:wmo:42361:1,2009-10-12T10:30:00Z,27.5500,-92.4900,1014.9,11111222 
ADCP,ioos:station:wmo:42361:1,2009-10-12T11:30:00Z,27.5500,-92.4900,1014.9,11111222 
ADCP,ioos:station:wmo:42361:1,2009-10-12T12:30:00Z,27.5500,-92.4900,1015.2,11111222 
ADCP,ioos:station:wmo:42361:1,2009-10-12T13:30:00Z,27.5500,-92.4900,1015.6,11111222 
ADCP,ioos:station:wmo:42361:1,2009-10-12T14:30:00Z,27.5500,-92.4900,1016.3,11111222 
ADCP,ioos:station:wmo:42361:1,2009-10-12T15:30:00Z,27.5500,-92.4900,1016.3,11111222 
ADCP,ioos:station:wmo:42361:1,2009-10-12T16:30:00Z,27.5500,-92.4900,1016.6,11111222 